Regional Weather Roundup
Issued by NWS Newport/Morehead, NC

Current Version | Previous Version | Graphics & Text | Print | Product List | Glossary Off
Versions: 1 2 3 4 5 6 7 8 9 10 11 12 13 14 15 16 17 18 19 20 21 22 23 24 25 26 27 28 29 30 31 32 33 34 35 36 37 38 39 40 41 42 43 44 45 46 47 48 49 50

000
ASUS42 KMHX 191713
RWRMHX
WEATHER ROUNDUP FOR EASTERN NORTH CAROLINA
NATIONAL WEATHER SERVICE NEWPORT/MOREHEAD CITY NC
1200 PM EST THU JAN 19 2017

NOTE: "FAIR" INDICATES FEW OR NO CLOUDS BELOW 12,000 FEET
WITH NO SIGNIFICANT WEATHER AND/OR OBSTRUCTIONS TO VISIBILITY

NCZ015>017-031-032-045>047-102-103-191800-
NORTH COAST

CITY           SKY/WX    TMP DP  RH WIND       PRES   REMARKS
EDENTON        SUNNY     54  43  65 CALM      30.11F
ELIZABETH CITY SUNNY     52  41  66 NE6       30.09F
KITTY HAWK     NOT AVBL
MANTEO         SUNNY     50  44  81 NW3       30.10F

$$

NCZ045>047-081-094-103-104-191800-
CENTRAL COAST

CITY           SKY/WX    TMP DP  RH WIND       PRES   REMARKS
FRISCO         SUNNY     53  45  74 VRB6      30.08F

$$

NCZ095-097-098-100-101-191800-
SOUTHERN COAST

CITY           SKY/WX    TMP DP  RH WIND       PRES   REMARKS
BEAUFORT       SUNNY     57  44  62 NE8       30.08F
CEDAR ISLAND   NOT AVBL
JACKSONVILLE   NOT AVBL
PINEY ISLAND   SUNNY    N/A N/A N/A E8        30.09F
WILMINGTON     SUNNY     58  42  55 SE6       30.08F


$$

NCZ011>013-027>030-043-044-078>080-089-090>093-098-191800-
COASTAL PLAIN

CITY           SKY/WX    TMP DP  RH WIND       PRES   REMARKS
AHOSKIE          N/A     51  39  62 NE3       30.11F
CLINTON        SUNNY     57  44  62 E6        30.10F
ELIZABETHTOWN  SUNNY     58  43  57 S3        30.09F
GOLDSBORO      SUNNY     56  43  62 N3        30.07F
GREENVILLE     SUNNY     55  41  58 CALM      30.10F
HAVELOCK       SUNNY     54  42  64 VRB6      30.09F
KENANSVILLE    SUNNY     55  43  62 CALM      30.10F
KINSTON        SUNNY     55  41  58 CALM      30.09F
NEW BERN       SUNNY     56  43  61 VRB5      30.09F
RICHLANDS      SUNNY     56  43  61 CALM      30.08F
ROCKY MOUNT    SUNNY     54  41  61 CALM      30.10F
WASHINGTON     SUNNY     56  41  58 CALM        N/A
WHITEVILLE     SUNNY     59  42  53 E5        30.09F

$$

AMZ130-135-150-152-154-156-158-170-250-252-270-ANZ085-086-088-633-658-670-191800-
MARINE OBSERVATIONS

STATION/POSITION TIME  TEMP    WIND        PRES    WAVE   SWELL
                       AIR SEA DIR/SP/G            HT/PER HT/PER
                 (UTC) (F)     (DEG/KT/KT) (MB)    (FT/S) (FT/S)
CHESAPEAKE LIGHT NOT AVBL
64 E VA BEACH    1650   50 59  350/ 14/ 16 1017.8    5/ 8   5/ 8
DUCK             1642   46 45   30/  6/  7 1018.5
2 E DUCK         1700      45                N/A     4/ 8
OREGON INLET     1642   50 49   10/  7/ 11 1018.9
13E OREGON INLT  NOT AVBL
HATTERAS CG      1648      54  340/  9/ 11 1018.5
DIAMOND BUOY     1650   53 76  360/ 14/ 17 1018.1    7/11   7/11
CAPE LOOKOUT     1700   53      30/  9/ 10 1018.3
BEAUFORT LAB     1642   53 50   40/  5/  8 1017.8
30 SE NEW RVR IN 1608   55 62   50/ 12/ 16 1019.3
30 SE NEW RVR IN 1643      62                N/A     4/10   2/11
27 SE WRIGHTSVLE 1608   58 70   60/ 12/ 16 1018.6
5 SE WRIGHTSVLE  NOT AVBL
225 S CAPE HAT   1650   67 71  360/  8/ 10 1016.5    7/ 8   7/ 8
41 SE CHARLESTON 1650   69 71   60/ 14/ 16 1016.2    3/ 7   2/ 7

$$



USA.gov is the U.S. government's official web portal to all federal, state and local government web resources and services.